Location: ?????
(42.0962°N, 43.7624°E)
Time: 05:32:15
(UTC+00:00)

Daily predictions for brighter satellites

Satellite Brightness Start Highest point End
(mag) Time Altitude Azimuth Time Altitude Azimuth Time Altitude Azimuth
NOSS 2-3 (D) 3.9 00:02:51 37° S 00:04:15 56° ESE 00:08:53 10° NE
Cosmos 990 Rocket 4.3 00:04:10 37° WSW 00:05:48 52° WNW 00:10:53 10° N
CZ-2C R/B 4.1 00:04:11 10° NNE 00:07:45 35° E 00:10:14 17° SSE
Cosmos 1726 2.3 00:07:20 37° SSE 00:08:38 66° E 00:12:17 10° NNE
IDEFIX/ARIANE 42P 2.9 00:03:30 10° NNE 00:08:40 61° E 00:12:20 19° S
SL-16 R/B 2.6 00:07:38 10° NW 00:12:56 40° WSW 00:15:01 29° SSW
SL-08 R/B 3.3 00:10:38 24° S 00:13:35 67° WSW 00:18:32 10° NNW
Cosmos 1340 Rocket 3.0 00:12:53 44° WSW 00:13:42 53° WNW 00:17:35 10° N
CZ-2D R/B 3.8 00:10:56 10° NNW 00:14:44 19° WNW 00:16:30 17° W
Cosmos 1455 Rocket 3.7 00:14:15 34° WSW 00:15:09 39° WNW 00:19:19 10° N
Meteor 1-24 Rocket 4.3 00:10:35 10° NNW 00:15:25 34° W 00:16:39 30° WSW
IRS-1D 4.4 00:11:49 10° N 00:16:21 34° WNW 00:18:02 27° WSW
CZ-4C R/B 4.5 00:13:39 10° SE 00:16:35 34° ENE 00:19:37 10° N
ERS-1 4.4 00:12:14 10° N 00:17:12 71° WNW 00:19:42 29° SSW
Cosmos 1461 3.9 00:16:24 29° W 00:17:53 37° NW 00:22:07 10° NNE
Cosmos 1626 Rocket 3.4 00:13:44 10° N 00:18:04 89° ENE 00:21:26 16° S
CZ-2C R/B 4.5 00:14:48 10° NE 00:18:21 22° E 00:21:54 10° SE
ADEOS II 2.8 00:13:36 10° N 00:18:27 39° WNW 00:20:29 28° WSW
ATLAS CENTAUR R/B 3.8 00:17:54 10° SSE 00:20:37 17° ESE 00:23:16 10° ENE
SL-4 R/B 1.3 00:18:45 20° WNW 00:20:59 69° SW 00:24:21 10° SE
Cosmos 1953 2.3 00:19:18 29° S 00:21:18 86° E 00:25:22 10° N
USA 229 DEB 3.7 00:17:54 27° SW 00:21:36 72° NW 00:28:28 10° NNE
USA 229 3.6 00:18:00 28° SW 00:21:42 72° NW 00:28:32 10° NNE
DEBRIS 2.9 00:23:24 33° SSE 00:23:41 35° SSE 00:25:39 10° ENE
CZ-2D R/B 3.3 00:21:36 10° N 00:25:39 80° WNW 00:27:39 28° SSW
Meteor 2-10 4.1 00:22:52 22° SSW 00:26:28 79° W 00:32:06 10° N
Meteor 2-21 4.3 00:20:51 10° N 00:26:56 81° W 00:33:00 10° S
Cosmos 2263 Rocket 2.1 00:26:12 22° SSW 00:29:52 88° ESE 00:35:28 10° NNE
NOSS 2-3 (C) 3.6 00:30:19 29° SW 00:32:27 76° NW 00:37:21 10° NNE
NOSS 3-1 (A) 3.2 00:29:29 25° SW 00:32:46 78° NW 00:39:04 10° NE
Cosmos 2297 Rocket 4.3 00:31:25 10° WNW 00:34:10 14° NW 00:36:56 10° NNW
Cosmos 2228 4.5 00:30:23 10° SSE 00:34:22 37° E 00:38:25 10° NNE
Cosmos 1758 Rocket 4.4 00:32:20 10° N 00:36:32 50° ENE 00:40:44 10° SSE
Cosmos 2285 Rocket 4.2 00:37:18 10° S 00:43:30 71° ESE 00:49:47 10° NNE
Meteor 1-28 Rocket 4.3 00:45:49 23° WSW 00:46:42 26° W 00:49:56 10° NW
Cosmos 2298 Rocket 4.1 00:44:08 13° SSW 00:48:51 85° ESE 00:54:13 10° NNE
Cosmos 1703 3.4 00:46:47 10° N 00:50:46 77° E 00:54:43 10° SSE
H-2A R/B 1.8 00:47:14 10° S 00:51:21 74° WSW 00:55:27 10° NNW
Cosmos 1603 3.7 00:47:02 10° NNW 00:52:46 72° WSW 00:58:25 10° SSE
Cosmos 1844 Rocket 4.4 00:51:35 10° SSE 00:56:21 30° ESE 01:01:07 10° NE
Cosmos 1825 Rocket 3.8 00:54:23 10° N 00:58:43 71° E 01:03:01 10° SSE
SeaSat 1 2.5 00:55:03 10° NNE 01:00:00 90° N 01:04:54 10° SSW
USA 215 4.2 00:54:19 10° NE 01:00:17 39° NNW 01:06:14 10° W
PAYLOAD A 4.3 00:58:00 10° NNE 01:03:24 76° ESE 01:08:34 10° S
Cosmos 1953 Rocket 4.4 01:00:56 10° N 01:05:22 55° E 01:09:45 10° SSE
Cosmos 1553 Rocket 3.9 01:02:42 10° SSW 01:08:45 72° W 01:14:51 10° N
Cosmos 1048 Rocket 4.0 01:09:47 10° NNW 01:14:57 89° WSW 01:20:08 10° SSE
FALCON 9 DEB 3.5 01:14:36 10° WNW 01:17:55 42° SW 01:21:12 10° SSE
Cosmos 1943 3.3 01:13:29 10° NNW 01:18:55 52° WSW 01:24:19 10° S
Cosmos 1745 Rocket 4.0 01:14:25 10° N 01:20:45 84° W 01:26:58 10° S
BREEZE-M R/B 3.5 01:20:17 10° NW 01:22:33 71° NNE 01:29:41 10° ESE
Cosmos 1606 Rocket 3.7 01:19:51 10° SSW 01:24:16 62° W 01:28:43 10° N
OAO 3 Rocket 4.1 01:27:08 10° WSW 01:31:38 35° S 01:36:06 10° ESE
USA 267 3.4 01:25:23 10° SSE 01:31:43 52° SW 01:38:04 10° NW
Cosmos 2084 3.5 01:31:02 10° SW 01:35:25 81° NW 01:39:54 10° NE
S3M 4.2 01:29:58 10° SSW 01:36:16 62° W 01:42:37 10° N
